www.pogodaiklimat.ru

Погода и климат >> Архив погоды >> Россия >> Камчатский край >> Сосновка


ПОГОДА в Сосновке

  • Прогноз погоды в Сосновке
  • Монитор погоды в Сосновке

АРХИВ ПОГОДЫ в Сосновке

Время (UTC), дата Ветер
(напр.,м/с)
 
Видим.   Явления Облачность Т
(С)
Тd
(С)
f
(%)
Тe
(С)
Тes
(С)
Комфортность P
(гПа)
Po
(гПа)
Тmin
(С)
Tmax
(С)
R
(мм)
R24
(мм)
S
(см)
21 15.09 ЮВ 1 50 км ясно +4.8 +4.7 99 +3 +5 1018.6 1013.6 -0.9
00 16.09 ЮВ 1 50 км ясно +13.2 +7.0 66 +14 +22 1019.5 1014.7
03 16.09 Ю 1 50 км ясно +17.8 +3.3 38 +19 +27 1018.1 1013.3
06 16.09 В 2 50 км ясно +15.1 +6.1 55 +15 +16 1018.1 1013.3
09 16.09 СЗ 2 50 км ясно +6.6 +5.9 95 +4 +4 1019.7 1014.7 +18.0
12 16.09 С 1 50 км 8/0
[Ci fib]
+8.4 +8.1 98 +7 +7 1020.9 1016.0
15 16.09 штиль 0 20 км 9/4 1000 м
[Sc Ac trans Ci fib]
+6.9 +6.3 96 +6 +6 1021.0 1016.0
18 16.09 штиль 0 20 км 10/6 1000 м
[Sc Ac und]
+5.3 +4.9 97 +4 +4 1019.7 1014.7
21 16.09 штиль 0 20 км 9/8 600 м
[Sc Ac trans]
+6.4 +5.7 95 +5 +6 1018.4 1013.4 +4.9
00 17.09 штиль 0 20 км 10/9 600 м
[Sc Ac und]
+9.3 +6.7 84 +9 +9 1016.9 1012.0
03 17.09 В 1 20 км 10 баллов +9.5 +5.9 78 +9 +9 1015.6 1010.7
06 17.09 штиль 0 4000 м слаб. ливневой дождь 10/10 300 м
[Cb cap]
+7.9 +7.6 98 +7 +7 1012.9 1008.0
09 17.09 штиль 0 4000 м слаб. ливневой дождь 10/10 300 м
[Cb cap]
+7.5 +7.2 98 +6 +6 1010.9 1006.1 +9.9 10
12 17.09 СВ 1 20 км {ливн. осадки} 10/6 600 м
[Sc Ac und]
+7.6 +7.3 98 +7 +7 1008.0 1003.0
15 17.09 штиль 0 10 км слаб. ливневой дождь 10/10 600 м
[Cb cap]
+7.0 +6.7 98 +6 +6 1006.2 1001.3
18 17.09 З 2 4000 м слаб. ливневой дождь 10/10 300 м
[Cb cap]
+7.0 +6.9 99 +5 +5 1004.9 1000.0
21 17.09 З 1 20 км {ливн. осадки} 10/3 1000 м
[Sc diur, vesp Ac und]
+7.7 +7.6 99 +7 +7 1004.0 999.2 +6.8 2
00 18.09 штиль 0 10 км {ливн. осадки} 10/8 300 м
[Sc Ac und]
+9.8 +8.3 90 +9 +10 1005.2 1000.3
03 18.09 З 2 20 км 10/6 1000 м
[Sc Ac und]
+12.7 +9.3 80 +12 +12 1006.1 1001.3
06 18.09 В 2 20 км 9/4 1000 м
[Sc Ac trans]
+12.4 +8.9 79 +12 +12 1007.5 1002.7
09 18.09 штиль 0 50 км 10/1 1000 м
[Sc Ac und]
+8.4 +7.5 94 +7 +7 1008.9 1004.0 +13.8
12 18.09 СЗ 1 20 км 10/6 1000 м
[Sc Ac und]
+6.8 +6.5 98 +6 +6 1010.2 1005.3
15 18.09 СВ 1 20 км 10/4 1000 м
[Sc Ac und]
+6.7 +6.6 99 +5 +5 1011.6 1006.7
18 18.09 штиль 0 20 км 9/4 1000 м
[Sc Ac trans]
+5.4 +5.3 99 +4 +4 1011.6 1006.7
21 18.09 штиль 0 50 км {туман} 9/4 1000 м
[Sc Ac trans Ci fib]
+6.5 +6.5 100 +5 +6 1011.4 1006.5 +4.3
00 19.09 ЮВ 1 50 км {туман} 3/1 1000 м
[Sc Ci fib]
+13.8 +7.5 66 +14 +21 1010.8 1006.0
03 19.09 ЮВ 2 50 км 3/3 1000 м
[Cu hum]
+15.7 +7.7 59 +16 +21 1010.0 1005.3
06 19.09 В 2 50 км 6/4 1000 м
[Sc Ci fib]
+13.1 +9.7 80 +12 +13 1011.5 1006.7
09 19.09 З 1 50 км 1/1 1000 м
[Sc]
+6.6 +6.2 97 +5 +5 1011.6 1006.7 +16.4
12 19.09 С 1 4000 м дымка 10/10 300 м
[St]
+7.5 +7.4 99 +6 +6 1011.0 1006.1
15 19.09 штиль 0 200 м туман ?/? +7.1 +7.0 99 +6 +6 1011.6 1006.7
18 19.09 СЗ 2 500 м туман ?/? +7.4 +7.4 100 +5 +5 1011.6 1006.7
21 19.09 В 1 2000 м дымка {туман} 10/10 300 м
[St]
+6.9 +6.8 99 +6 +6 1010.2 1005.3 +4.8
00 20.09 штиль 0 4000 м слаб. ливневой дождь 10/10 300 м
[Cb cap]
+8.0 +7.9 99 +7 +7 1009.2 1004.3
03 20.09 В 1 20 км 10 баллов +10.6 +8.5 87 +10 +10 1008.8 1004.0
06 20.09 В 2 20 км {ливн. осадки} 10/5 600 м
[Sc Ac und]
+10.4 +7.3 81 +9 +9 1008.8 1004.0
09 20.09 С 1 20 км слаб. ливневой дождь 10/8 600 м
[Cb cap Ac und]
+7.9 +7.5 97 +7 +7 1008.9 1004.0 +11.0 0.4
12 20.09 СВ 1 20 км слаб. ливневой дождь 10/10 600 м
[Cb cap]
+7.7 +7.4 98 +7 +7 1006.9 1002.0
15 20.09 СЗ 2 2000 м слаб. ливневой дождь 10/10 300 м
[Cb cap]
+7.3 +6.6 95 +5 +5 1006.2 1001.3
18 20.09 ЮЗ 1 4000 м слаб. ливневой дождь 10/8 300 м
[Cb cap Ac und]
+6.5 +6.2 98 +5 +5 1006.2 1001.3
21 20.09 Ю 1 50 км в посл. час ливневой дождь 9/8 1000 м
[Sc diur, vesp Ac trans]
+7.3 +7.1 99 +6 +6 1005.9 1001.0 +6.3 5
00 21.09 ЮЗ 2 50 км {ливн. осадки} 9/8 1000 м
[Sc Ac trans]
+10.9 +7.9 82 +10 +11 1005.8 1001.0
03 21.09 Ю 1 50 км 9/3 1000 м
[Sc Ac trans Ci fib]
+14.7 +7.0 60 +15 +16 1007.5 1002.7
06 21.09 В 1 50 км 9/4 1000 м
[Sc Ci fib]
+12.6 +7.1 69 +13 +13 1008.8 1004.0
09 21.09 СЗ 2 50 км 8/3 1000 м
[Sc Ac trans Ci fib]
+7.5 +6.1 91 +5 +5 1011.6 1006.7 +15.2
12 21.09 З 1 20 км 10/6 1000 м
[Sc Ac und]
+5.8 +5.5 98 +4 +4 1014.2 1009.3
15 21.09 штиль 0 20 км 9/4 1000 м
[Sc Ac trans]
+4.1 +4.0 99 +3 +3 1014.3 1009.3
18 21.09 СЗ 1 50 км 4/3 1000 м
[Sc Ci fib]
+2.1 +2.0 99 0 0 1015.7 1010.7
21 21.09 Ю 1 50 км 3/3 1000 м
[Sc]
+5.1 +5.0 99 +4 +4 1014.6 1009.7 +0.2
00 22.09 50 км н/о +13.9 +6.3 60 +14 +19 1013.9 1009.1
03 22.09 ЮЗ 2 50 км 6 баллов +17.0 +4.0 42 +17 +20 1012.7 1008.0
06 22.09 З 5 50 км 7 баллов +14.0 +2.9 47 +12 +13 1012.8 1008.0
09 22.09 З 2 50 км 8/1 1000 м
[Sc Ci fib]
+8.0 +3.7 74 +6 +6 1014.2 1009.3 +17.3
12 22.09 СЗ 2 50 км 7 баллов +5.6 +3.6 87 +3 +3 1014.2 1009.3
15 22.09 штиль 0 н/о 7 баллов +1.7 +1.3 97 0 0 1014.3 1009.3

 

Местоположение метеостанции Сосновка (Камчатский край, Россия): широта 53.08 долгота 158.30 высота над уровнем моря 40 м.

В архиве по умолчанию представлена погода в Сосновке за последнюю неделю. Архивные данные за месяц целиком и за предыдущие месяцы, начиная с января 2011 года, Вы можете получить, выбрав интересующий диапазон дат из раскрывающегося списка и нажав кнопку "Ввод!".


*Определитесь, кто Вы:
робот инопланетянин человек

Внимание! Время в таблицах - всемирное. Для получения местного времени необходимо прибавить поправку, которая равна 12 ч.

Смотрите также архив погоды в соседних городах и на ближайших метеорологических станциях:

Погода в Петропавловск-Камч. 2 (Камчатский край, Россия) (13 км)
Погода в Петропавловск-Камчатском (Камчатский край, Россия) (31 км)
Погода в Петропавловском Маяке (Камчатский край, Россия) (35 км)
Погода в Начиках (Камчатский край, Россия) (40 км)
Погода в Пущино (Камчатский край, Россия) (124 км)
Погода в Большерецке (Камчатский край, Россия) (137 км)
Погода в Водопадной (Камчатский край, Россия) (142 км)
Погода в Семячике (Камчатский край, Россия) (157 км)
Погода в Мильково (Камчатский край, Россия) (178 км)
Погода в Соболево (Камчатский край, Россия) (208 км)

Пояснения к столбцам:

Ветер - указаны скорость ветра в м/с - средняя за 10 мин, порывы в срок и между сроками (в фигурных скобках) и направление, откуда дует ветер: С - северный, СВ - северо-восточный, В - восточный, ЮВ - юго-восточный, Ю - южный, ЮЗ - юго-западный, З - западный, СЗ - северо-западный.
Видимость - горизонтальная дальность видимости в метрах или километрах. При видимости от 1 до 10 км при отсутствии осадков обычно наблюдается дымка, при ухудшении видимости до 1 км и менее - туман. В сухую погоду видимость может ухудшаться дымом, пылью или мглою.
Явления - указаны атмосферные явления, наблюдавшиеся в срок или в последний час перед сроком; фигурными скобками обозначены явления, наблюдавшиеся между сроками (за 1-3 часа до срока); квадратными скобками обозначены град или гололедные отложения с указанием их диаметра в мм.
Облачность - указаны через наклонную черту общая и нижняя облачность в баллах и высота нижней границы облаков в метрах; квадратными скобками обозначены формы облаков: Ci - перистые, Cs - перисто-слоистые, Cc - перисто-кучевые, Ac - высококучевые, As - высокослоистые, Sc - слоисто-кучевые, Ns - слоисто-дождевые, Cu - кучевые, Cb - кучево-дождевые. Подробнее классификацию облаков см. в Атласе облаков (PDF).
T - Температура воздуха - температура, измеренная на высоте 2 м над землей.
Td - Температура точки росы - температура, при понижении до которой содержащийся в воздухе водяной пар достигнет насыщения.
f - Относительная влажность воздуха - влажноcть воздуха, измеренная на высоте 2 м над землей.
Te - Эффективная температура - температура, которую ощущает одетый по сезону человек в тени. Характеристика душности погоды. При расчете учитывается влияние влажности воздуха и скорости ветра на теплоощущения человека.
Tes - Эффективная температура на солнце - температура, которую ощущает человек, с поправкой на солнечный нагрев. Характеристика знойности погоды. Зависит от высоты солнца над горизонтом, облачности и скорости ветра. Ночью, в пасмурную погоду, а также при ветре 12 м/с и более поправка равна нулю.
P - Атмосферное давление - приведенное к уровню моря атмосферное давление.
Po - Атмосферное давление - измеренное на уровне метеостанции атмосферное давление.
Tmin - Минимальная температура - минимум температуры воздуха на высоте 2 м над землей.
Tmax - Максимальная температура - максимум температуры воздуха на высоте 2 м над землей.
R - Количество осадков - Количество выпавших осадков за период времени, мм. При наведении курсора мыши на число - период времени, за который выпало указанное количество осадков.
R24 - Количество осадков - Количество выпавших осадков за 24 часа, мм.
S - Снежный покров - Высота снежного покрова, см. При наведении курсора мыши на число - состояние снежного покрова и степень покрытия местности в баллах.